FW2418 Weather Reports


time (UTC)temp
C
wind
direction
speed
KPH
gust
KPH
rain 1hr
cm
rain 24hr
cm
rain mn
cm
humidity
%
barometer
mb
20260509111744 21 19 0.0 0.0 0.00 2.03 0.00 100 1010.6
20260509110743 21 19 0.0 1.6 0.00 2.03 0.00 100 1010.6
20260509105743 21 19 0.0 1.6 0.00 2.03 0.00 100 1010.6
20260509104742 21 15 0.0 0.0 0.00 2.03 0.00 100 1010.6
20260509103741 21 15 0.0 1.6 0.00 2.03 0.00 100 1010.6
20260509102740 21 347 0.0 1.6 0.00 2.03 0.00 100 1010.6
20260509101740 21 347 0.0 1.6 0.00 2.03 0.00 100 1010.6
20260509100708 21 347 0.0 1.6 0.00 2.03 0.00 100 1010.3
20260509095706 21 347 0.0 1.6 0.00 2.03 0.00 100 1010.6
20260509094634 21 347 0.0 1.6 0.00 2.03 0.00 100 1010.3
20260509093633 21 354 0.0 0.0 0.00 2.03 0.00 100 1010.3
20260509092633 21 354 0.0 1.6 0.00 2.03 0.00 100 1010.3
20260509091631 21 354 0.0 1.6 0.00 2.03 0.00 100 1010.3
20260509090631 21 79 0.0 0.0 0.00 2.03 0.00 100 1010.3
20260509085630 21 79 0.0 1.6 0.00 2.03 0.00 100 1010.6
20260509084558 21 79 0.0 1.6 0.00 2.03 0.00 100 1010.6
20260509083557 21 81 0.0 1.6 0.00 2.03 0.00 100 1010.3
20260509082525 21 34 0.0 1.6 0.00 2.03 0.00 100 1010.6
20260509081452 21 15 0.0 1.6 0.00 2.03 0.00 100 1010.6
20260509080451 21 32 0.0 1.6 0.00 2.03 0.00 100 1010.6
20260509075451 21 103 0.0 1.6 0.00 2.03 0.00 100 1010.6
20260509074419 21 18 0.0 1.6 0.00 2.03 0.00 100 1010.6
20260509073418 21 74 1.6 3.2 0.00 2.03 0.00 100 1010.6
20260509072416 21 16 0.0 3.2 0.00 2.03 0.00 100 1010.6
20260509071415 21 43 1.6 4.8 0.00 2.03 0.00 100 1011.0
20260509070415 21 1 1.6 6.4 0.00 2.03 0.00 100 1011.0
20260509065414 21 36 3.2 6.4 0.00 2.03 0.00 100 1011.3
20260509064342 21 356 1.6 1.6 0.00 2.03 0.00 100 1011.3
20260509063341 21 77 1.6 1.6 0.00 2.03 0.00 100 1011.3
20260509062340 21 24 1.6 1.6 0.00 2.03 0.00 100 1011.3
20260509061339 21 32 0.0 1.6 0.00 2.03 0.00 100 1010.9
20260509060338 21 346 0.0 0.0 0.00 2.03 0.00 100 1011.3
20260509055337 21 344 0.0 1.6 0.00 2.03 0.00 100 1011.3
20260509054336 21 346 0.0 1.6 0.00 2.03 0.00 100 1011.3
20260509053335 21 6 0.0 0.0 0.00 2.03 0.00 100 1011.3
20260509052334 21 27 0.0 0.0 0.00 2.03 0.00 100 1011.6
20260509051333 21 27 0.0 0.0 0.00 2.03 0.00 100 1011.6
20260509050332 21 27 0.0 0.0 0.00 2.03 0.00 99 1012.0
20260509045331 21 27 0.0 0.0 0.00 2.03 0.00 99 1012.0
20260509044330 21 27 0.0 0.0 0.00 2.03 0.00 99 1012.0
20260509043258 21 27 0.0 0.0 0.00 2.03 0.00 99 1012.0
20260509042257 21 27 0.0 0.0 0.00 2.03 0.00 99 1012.0
20260509041257 21 27 0.0 0.0 0.00 2.03 0.00 99 1012.3
20260509040256 21 27 0.0 0.0 0.00 2.03 0.00 99 1012.3
20260509035255 21 28 0.0 0.0 0.00 2.03 2.03 99 1012.3
20260509034254 21 27 0.0 0.0 0.00 2.03 2.03 99 1012.3
20260509033253 21 58 0.0 0.0 0.00 2.03 2.03 99 1012.3
20260509032252 21 75 0.0 0.0 0.00 2.03 2.03 99 1012.3
20260509031251 21 75 0.0 0.0 0.00 2.03 2.03 99 1012.3
20260509030250 21 75 0.0 1.6 0.00 2.03 2.03 99 1012.3
20260509025249 21 75 1.6 1.6 0.00 2.03 2.03 99 1012.3
20260509024249 21 319 0.0 1.6 0.00 2.03 2.03 99 1012.3
20260509023248 21 84 0.0 0.0 0.00 2.03 2.03 99 1012.3
20260509022247 21 32 0.0 1.6 0.08 2.03 2.03 99 1012.3
20260509021246 22 32 0.0 3.2 0.28 2.03 2.03 99 1012.0
20260509020245 22 1 1.6 1.6 0.56 2.03 2.03 99 1011.6
20260509015244 22 84 1.6 1.6 0.61 2.03 2.03 99 1011.6
20260509014243 22 33 1.6 3.2 0.61 2.03 2.03 99 1011.6
20260509013242 22 32 0.0 3.2 0.64 2.03 2.03 99 1011.6
20260509012241 22 323 1.6 3.2 1.45 1.93 1.93 98 1011.6
20260509011209 22 316 0.0 8.0 1.73 1.73 1.73 98 1011.6
20260509010137 22 106 1.6 8.0 1.45 1.45 1.45 98 1011.3
20260509005136 21 15 3.2 8.0 1.42 1.42 1.42 98 1010.9
20260509004135 21 132 1.6 17.7 1.42 1.42 1.42 97 1010.6
20260509003103 22 72 4.8 29.0 1.37 1.37 1.37 96 1010.6
20260509002102 25 26 12.9 30.6 0.13 0.13 0.28 87 1011.6
20260509001101 25 303 3.2 11.3 0.00 0.00 0.00 82 1011.0
20260509000100 26 56 3.2 14.5 0.00 0.00 0.00 82 1010.3
20260508235028 27 39 4.8 14.5 0.00 0.00 0.00 79 1009.9
20260508234027 27 50 6.4 11.3 0.00 0.00 0.00 77 1010.3
20260508233026 27 52 3.2 12.9 0.00 0.00 0.00 77 1009.6
20260508232025 28 75 3.2 9.7 0.00 0.00 0.00 78 1009.6
20260508230952 28 38 3.2 12.9 0.00 0.00 0.00 78 1009.6
20260508225920 28 59 3.2 14.5 0.00 0.00 0.00 78 1009.3
20260508224919 28 75 3.2 9.7 0.00 0.00 0.00 77 1008.9
20260508223848 28 100 1.6 11.3 0.00 0.00 0.00 77 1008.6
20260508222847 29 69 3.2 12.9 0.00 0.00 0.00 76 1008.6
20260508221846 29 72 3.2 12.9 0.00 0.00 0.00 75 1008.6
20260508220845 29 111 3.2 12.9 0.00 0.00 0.00 74 1008.3
20260508215845 30 88 3.2 16.1 0.00 0.00 0.00 74 1008.3
20260508214843 30 74 3.2 14.5 0.00 0.00 0.00 72 1008.6
20260508213843 31 82 3.2 12.9 0.00 0.00 0.00 70 1008.6
20260508212811 31 54 4.8 12.9 0.00 0.00 0.00 69 1008.6
20260508211810 31 118 1.6 14.5 0.00 0.00 0.00 71 1008.6
20260508210809 31 96 3.2 11.3 0.00 0.00 0.00 70 1008.6
20260508205808 31 56 4.8 12.9 0.00 0.00 0.00 69 1008.6
20260508204807 31 44 3.2 12.9 0.00 0.00 0.00 68 1008.6
20260508203806 32 118 3.2 8.0 0.00 0.00 0.00 60 1008.6
20260508202734 32 51 1.6 8.0 0.00 0.00 0.00 60 1008.9
20260508201733 32 48 3.2 9.7 0.00 0.00 0.00 61 1008.9
20260508200732 32 59 3.2 11.3 0.00 0.00 0.00 61 1008.9
20260508195731 32 57 3.2 11.3 0.00 0.00 0.00 60 1009.3
20260508194659 33 99 3.2 11.3 0.00 0.00 0.00 60 1009.3
20260508193627 34 29 3.2 11.3 0.00 0.00 0.00 58 1009.3
20260508192626 33 1 1.6 4.8 0.00 0.00 0.00 52 1009.6
20260508191625 33 193 1.6 8.0 0.00 0.00 0.00 55 1009.6
20260508190624 33 320 3.2 12.9 0.00 0.00 0.00 54 1010.0
20260508185521 33 251 1.6 9.7 0.00 0.00 0.00 55 1010.3
20260508184520 33 284 1.6 11.3 0.00 0.00 0.00 55 1010.3
20260508183519 32 315 1.6 6.4 0.00 0.00 0.00 56 1010.6
20260508182518 32 308 1.6 6.4 0.00 0.00 0.00 57 1010.6
20260508181517 32 129 3.2 8.0 0.00 0.00 0.00 59 1011.0
20260508180445 31 24 1.6 4.8 0.00 0.00 0.00 60 1011.3
20260508175445 31 125 1.6 4.8 0.00 0.00 0.00 60 1011.3
20260508174444 31 324 0.0 4.8 0.00 0.00 0.00 62 1011.3
20260508173443 31 356 1.6 4.8 0.00 0.00 0.00 62 1011.3
20260508172442 31 285 1.6 4.8 0.00 0.00 0.00 62 1011.7
20260508171441 31 156 1.6 4.8 0.00 0.00 0.00 62 1011.7
20260508170440 31 282 3.2 9.7 0.00 0.00 0.00 61 1012.0
20260508165439 31 172 1.6 9.7 0.00 0.00 0.00 61 1012.0
20260508164438 31 170 1.6 4.8 0.00 0.00 0.00 61 1012.0
20260508163406 31 269 1.6 3.2 0.00 0.00 0.00 65 1012.3
20260508162405 30 255 0.0 3.2 0.00 0.00 0.00 66 1012.3
20260508161404 30 289 1.6 8.0 0.00 0.00 0.00 67 1012.7
20260508160403 30 316 1.6 8.0 0.00 0.00 0.00 68 1012.7
20260508155402 30 298 1.6 4.8 0.00 0.00 0.00 68 1012.7
20260508154401 30 282 1.6 3.2 0.00 0.00 0.00 68 1013.0
20260508153401 30 294 0.0 4.8 0.00 0.00 0.00 69 1013.0
20260508152400 30 301 3.2 4.8 0.00 0.00 0.00 68 1013.0
20260508151359 30 251 1.6 3.2 0.00 0.00 0.00 68 1013.0
20260508150358 30 264 1.6 4.8 0.00 0.00 0.00 70 1013.0
20260508145357 28 38 3.2 6.4 0.00 0.00 0.00 74 1013.0
20260508144356 28 301 1.6 4.8 0.00 0.00 0.00 78 1013.0
20260508143355 28 252 1.6 4.8 0.00 0.00 0.00 79 1013.3
20260508142323 28 313 0.0 6.4 0.00 0.00 0.00 79 1013.0
20260508141322 27 315 1.6 6.4 0.00 0.00 0.00 82 1013.0
20260508140321 27 293 1.6 6.4 0.00 0.00 0.00 83 1013.0
20260508135321 27 301 3.2 6.4 0.00 0.00 0.00 84 1013.3
20260508134320 27 298 1.6 8.0 0.00 0.00 0.00 85 1013.0
20260508133319 26 292 1.6 8.0 0.00 0.00 0.00 87 1013.0
20260508132318 26 305 3.2 4.8 0.00 0.00 0.00 88 1013.0
20260508131317 26 290 1.6 4.8 0.00 0.00 0.00 89 1013.0
20260508130245 26 289 1.6 4.8 0.00 0.00 0.00 90 1013.0
20260508125244 25 272 1.6 4.8 0.00 0.00 0.00 91 1012.7
20260508124243 25 276 1.6 1.6 0.00 0.00 0.00 92 1013.0
20260508123242 25 270 0.0 1.6 0.00 0.00 0.00 94 1012.7
20260508122210 24 301 1.6 1.6 0.00 0.00 0.00 95 1012.7
20260508121209 23 269 0.0 1.6 0.00 0.00 0.00 95 1012.7
20260508120208 23 255 1.6 1.6 0.00 0.00 0.00 96 1012.7
20260508115136 23 278 1.6 1.6 0.00 0.00 0.00 97 1012.3
20260508114136 22 283 0.0 0.0 0.00 0.00 0.00 97 1012.3
20260508113135 22 284 0.0 0.0 0.00 0.00 0.00 97 1012.3
20260508112134 22 283 0.0 0.0 0.00 0.00 0.00 97 1012.0